Погода в Кветте

Пакистан     30°11′15″N   67°00′35″E
темп.,
°C
ветер,
м/с
пор.,
м/с
влажн.,
%
обл.,
%
осадки,
мм/ч
давл.,
гПа
погр.,
м
25 февраля, чт
чт2523:00+12юв23380 0.0 101423
02:00+10юв12430 0.0 101422
05:00+9юв12440 0.0 101322
08:00+10ююв12410 0.0 101622
11:00+16ююз33230 0.0 1016967
14:00+19юз68200 0.0 10122370
17:00+18зюз88220 0.0 10111866
20:00+13з22310 0.0 101435
26 февраля, пт
пт2623:00+12юз23360 0.0 101425
02:00+9з454113 0.0 1015151
05:00+5ссз226156 0.4 1016349
08:00+3ю128399 0.5 1018222
11:00+6зсз347798 0.6 1017490
14:00+8зсз456186 0.0 10141049
17:00+7зсз466189 0.0 10131022
20:00+6зсз366784 0.0 1016866
27 февраля, сб
сб2723:00+5зсз465385 0.0 1016723
02:00+3зсз345344 0.0 1016279
05:00+1зсз235722 0.0 1016146
08:00+1зсз22590 0.0 1018158
11:00+5зсз34490 0.0 1017761
14:00+8зсз56360 0.0 10141276
17:00+8зсз56330 0.0 10131200
20:00+6зсз23380 0.0 1015415
28 февраля, вс
вс2823:00+4зсз22330 0.0 101636
02:00+2зсз12360 0.0 101623
05:00+1ссв12360 0.0 101622
08:00+2св12330 0.0 101722
11:00+9сз11170 0.0 1016374
14:00+12зсз22110 0.0 1013876
17:00+13зсз3390 0.0 10121100
20:00+9сз22180 0.0 101522
1 марта, пн
пн123:00+6зюз11260 0.0 101622
02:00+5сз01260 0.0 101622
05:00+4сз11270 0.0 101622
08:00+5с01280 0.0 101722
11:00+11зсз22180 0.0 1017646
14:00+14сз23140 0.0 10151407
17:00+14сз23140 0.0 10151509
20:00+11сз12230 0.0 101722